CAPE
0 0 0 0 0 0 0 0 0 0 0 0 0 196 620 677 761 1019 1049 1000 586 793 579 490 354 328 188 92 69 264 836 2183 1036 673 766 876 620 972 2000 844 1582 1985 1732 1548
0 0 0 0 0 0 0 0 0 0 0 0 1 30 448 702 685 912 1038 1077 874 795 739 558 437 341 247 158 226 985 1397 2234 1277 680 1023 1037 1237 731 840 820 1806 1641 1734 1878
0 0 0 0 0 0 0 0 0 0 0 0 0 80 197 507 724 770 1004 1139 1028 630 896 623 529 453 345 237 359 1316 1885 2162 1695 1295 1023 1084 1399 1863 981 1947 1393 1863 1752 1908
0 0 0 0 0 0 0 0 0 0 0 0 0 0 156 132 764 615 770 983 1044 928 685 808 688 619 499 378 284 1365 1766 2202 1796 2023 770 1767 1031 853 831 1175 917 1480 1735 1696
0 0 0 0 0 0 0 0 0 0 0 0 0 0 34 275 306 781 702 796 941 1025 650 756 846 810 659 479 336 563 2025 2346 2110 1874 1627 1292 1706 688 730 657 2812 2831 3123 1726
0 0 0 0 0 0 0 0 0 0 0 0 0 0 0 61 389 368 619 650 871 1014 919 679 795 913 790 679 548 423 1987 2546 2575 2331 1918 2622 2123 1983 639 1020 1363 1058 1343 1655
0 0 0 0 0 0 0 0 0 0 0 0 0 0 0 0 30 211 542 649 726 875 1067 909 759 810 976 1011 1082 1168 1923 2810 2607 2640 1920 2290 3000 2841 2929 2544 1098 1335 651 686
0 0 0 0 0 0 0 0 0 0 0 0 0 0 0 0 5 22 229 582 670 705 964 1043 904 848 1047 1288 1719 1878 2393 2811 2961 2552 2558 2161 2625 1058 1177 2177 956 614 425 675
0 0 0 0 0 0 2 7 0 0 8 0 0 0 0 0 0 0 23 366 566 703 682 983 975 934 909 1378 1945 2115 2608 3137 3064 2530 2745 3107 2674 1656 1048 2307 3023 1464 1918 894
0 0 0 0 0 0 1 19 3 1 6 5 4 5 0 0 0 0 0 116 311 683 742 771 879 934 972 979 1390 2054 2458 3249 3255 2799 2760 2780 2968 2735 1997 2670 3327 2393 2919 2514
0 0 0 0 0 0 0 0 15 34 3 4 1 11 4 0 0 0 0 6 125 382 617 774 808 884 1040 1032 1044 1283 2063 2857 2870 2789 2928 2750 2650 2616 2223 2584 3020 3201 3394 3558
0 0 0 0 0 0 0 18 38 109 51 3 8 35 42 5 0 0 0 0 0 37 346 657 723 945 985 1159 1162 1230 1304 1583 2370 2585 3004 2876 3025 2763 2462 1919 2711 3284 3596 3842
9 2 0 0 0 0 0 0 0 14 60 75 19 2 46 15 10 1 0 0 1 4 76 324 508 1013 1202 1157 1913 1679 1418 1310 1538 2466 2311 2878 3132 2944 2655 2953 2925 3129 3541 3827
2 26 19 5 11 0 0 0 44 32 71 17 20 62 47 32 21 1 0 0 0 1 23 151 309 575 1249 1697 2338 2496 1671 1351 1412 1644 1873 2563 3040 3132 2941 3216 3341 3305 3696 3829
55 33 18 11 1 0 0 1 1 6 39 97 57 53 103 54 67 26 8 20 6 14 2 43 109 136 892 2277 2800 2804 2064 2298 1766 2175 2180 2498 3183 3337 3417 3167 3418 3382 3697 3693
109 89 45 47 30 3 0 0 0 0 0 0 0 0 0 2 0 40 31 47 39 73 17 0 1 70 263 753 2736 3074 2639 2661 2471 2604 2499 2725 3393 3535 3608 3237 3376 3675 3725 3915
105 137 97 89 28 19 22 0 0 0 0 0 0 0 0 0 0 4 61 140 38 16 0 57 130 214 409 507 1976 2669 2945 2617 3004 3162 3061 3210 3635 3729 3686 3403 3568 3818 3948 4032
159 175 185 142 77 63 6 0 0 9 6 0 0 0 0 0 0 0 10 56 158 118 151 172 187 148 198 480 692 1978 2167 2989 3310 3055 3747 3490 3936 3889 4010 3923 3884 4018 4039 4112
181 256 250 134 113 44 20 10 104 31 0 1 2 0 0 0 0 0 1 1 78 84 176 342 396 305 389 434 456 1770 2213 3042 3090 3523 3694 3620 3831 3982 4183 4154 4070 4154 4163 4164
136 210 380 189 130 91 54 158 14 15 1 5 5 0 0 0 0 0 20 215 132 245 443 596 780 974 922 810 837 1232 2299 3225 3263 3662 3484 3771 3885 4063 4197 4234 4322 4335 4256 4215
194 172 270 246 200 134 81 101 0 38 1 0 84 155 77 90 17 183 48 3 0 45 353 878 1296 2128 2074 1434 1280 1698 2044 2499 3394 2916 3398 3971 3975 4169 4268 4467 4470 4401 4239 3553
103 165 229 189 192 143 218 131 5 32 0 0 45 67 226 270 151 6 0 0 0 5 331 940 1771 2605 2821 1957 2843 2677 2817 2806 3964 3552 3637 3998 4137 3601 3478 4455 4496 4544 4444 4471
64 70 137 83 102 188 122 103 31 26 0 0 10 11 1 0 1 0 0 0 0 0 1 185 499 737 784 2040 1806 2354 4182 3720 4161 3980 4029 4093 4164 4098 3995 4309 4485 3943 4426 3188
11 4 28 31 11 0 0 3 8 14 16 0 5 0 1 9 0 6 4 2 0 4 0 0 0 0 0 0 314 2026 2566 3552 3709 3942 4155 4156 4128 4134 4182 3591 3577 3167 2988 3056
6 18 12 24 3 11 21 25 27 0 0 3 31 16 17 9 0 1 2 0 8 7 8 9 6 0 0 0 0 22 34 1672 3570 3756 3477 3947 3322 3536 3710 3457 3225 3102 3321 2468
36 16 15 25 23 14 18 32 22 38 31 23 27 9 5 2 2 0 1 2 5 11 16 18 28 11 2 0 0 0 0 9 2317 3126 3239 3078 3042 3154 3088 3019 2617 16 1000 679
CIN
-0 -0 -0 -0 -0 -0 -0 -0 -0 -0 -0 -0 -0 -0 -112 -0 -0 -0 -0 -1 -5 -0 -1 -4 -5 -3 -8 -44 -49 -20 -0 -0 -0 -0 -0 -0 -0 -0 -1 -0 -0 -0 -1 -0
-0 -0 -0 -0 -0 -0 -0 -0 -0 -0 -0 -0 -0 -3 -13 -0 -1 -0 -0 -2 -0 -0 -0 -3 -15 -14 -22 -32 -28 -0 -0 -0 -0 -4 -1 -0 -0 -0 -0 -1 -0 -0 -0 -0
-0 -0 -0 -0 -0 -0 -0 -0 -0 -0 -0 -0 -0 -0 -0 -2 -1 -0 -0 -0 -0 -2 -0 -8 -16 -24 -28 -42 -33 -0 -0 -0 -0 -0 -0 -0 -0 -1 -0 -11 -0 -0 -0 -0
-0 -0 -0 -0 -0 -0 -0 -0 -0 -0 -0 -0 -0 -0 -1 -29 -0 -0 -0 -0 -0 -2 -3 -2 -10 -18 -40 -51 -55 -0 -0 -0 -0 -0 -2 -0 -0 -0 -0 -0 -0 -0 -0 -0
-0 -0 -0 -0 -0 -0 -0 -0 -0 -0 -0 -0 -0 -0 -0 -4 -1 -0 -0 -0 -0 -2 -24 -18 -28 -35 -33 -30 -60 -33 -0 -0 -0 -0 -1 -0 -0 -0 -0 -0 -1 -0 -0 -0
-0 -0 -0 -0 -0 -0 -0 -0 -0 -0 -0 -0 -0 -0 -0 -3 -0 -1 -0 -0 -0 -0 -13 -30 -29 -14 -18 -13 -17 -40 -0 -0 -0 -0 -6 -0 -0 -0 -0 -0 -0 -0 -0 -0
-0 -0 -0 -0 -0 -0 -0 -0 -0 -0 -0 -0 -0 -0 -0 -0 -4 -1 -0 -0 -0 -0 -6 -22 -15 -28 -35 -15 -13 -7 -0 -0 -0 -0 -1 -0 -0 -1 -0 -0 -0 -1 -0 -0
-0 -0 -0 -0 -0 -0 -0 -0 -0 -0 -0 -0 -0 -0 -0 -0 -0 -13 -4 -0 -0 -0 -0 -10 -26 -50 -56 -45 -7 -1 -0 -0 -0 -0 -0 -0 -0 -12 -3 -0 -0 -0 -0 -0
-0 -0 -0 -0 -0 -0 -0 -0 -0 -0 -0 -0 -0 -0 -0 -0 -0 -0 -6 -0 -2 -0 -0 -7 -24 -23 -45 -35 -14 -16 -0 -0 -0 -0 -0 -0 -0 -8 -4 -1 -1 -0 -0 -0
-0 -0 -0 -0 -0 -0 -0 -2 -0 -0 -0 -0 -0 -0 -0 -0 -0 -0 -0 -1 -1 -0 -1 -0 -6 -26 -33 -53 -45 -10 -0 -0 -0 -0 -0 -0 -0 -0 -1 -0 -0 -1 -0 -0
-0 -0 -0 -0 -0 -0 -0 -0 -0 -0 -0 -0 -0 -0 -0 -0 -0 -0 -0 -6 -4 -2 -0 -0 -0 -20 -44 -28 -33 -42 -13 -1 -0 -0 -0 -0 -0 -0 -3 -0 -0 -0 -0 -0
-0 -0 -0 -0 -0 -0 -0 -0 -0 -0 -0 -0 -0 -0 -2 -1 -0 -0 -0 -0 -0 -4 -0 -0 -0 -3 -26 -29 -29 -45 -52 -41 -19 -5 -0 -0 -0 -0 -0 -7 -0 -0 -0 -0
-0 -0 -0 -0 -0 -0 -0 -0 -0 -0 -0 -0 -0 -0 -7 -2 -1 -0 -0 -0 -0 -3 -0 -0 -0 -1 -10 -29 -16 -30 -45 -56 -45 -9 -7 -0 -0 -0 -1 -0 -0 -0 -0 -0
-0 -0 -0 -0 -0 -0 -0 -0 -0 -0 -0 -0 -2 -0 -0 -5 -1 -1 -0 -0 -0 -0 -2 -0 -1 -0 -1 -3 -6 -3 -35 -46 -41 -32 -22 -1 -0 -0 -0 -0 -0 -0 -0 -0
-0 -0 -0 -0 -0 -0 -0 -0 -0 -0 -0 -2 -2 -2 -1 -0 -3 -0 -1 -0 -4 -8 -2 -3 -1 -1 -1 -2 -3 -0 -19 -12 -27 -19 -20 -15 -1 -0 -0 -0 -0 -0 -0 -0
-0 -0 -0 -0 -0 -0 -0 -0 -0 -0 -0 -0 -0 -0 -0 -68 -37 -3 -5 -1 -3 -4 -14 -0 -0 -26 -3 -0 -1 -5 -23 -16 -15 -12 -34 -13 -0 -0 -0 -0 -0 -0 -0 -0
-0 -0 -0 -0 -0 -0 -0 -0 -0 -0 -0 -0 -0 -0 -0 -0 -0 -4 -1 -6 -21 -29 -2 -55 -56 -51 -32 -36 -14 -17 -34 -18 -4 -0 -3 -0 -0 -0 -0 -0 -0 -0 -0 -0
-0 -0 -0 -0 -0 -0 -0 -0 -0 -0 -2 -0 -0 -0 -0 -0 -0 -0 -1 -5 -28 -50 -53 -67 -72 -105 -95 -71 -50 -33 -35 -29 -13 -12 -0 -0 -0 -0 -0 -0 -0 -0 -0 -0
-0 -0 -0 -0 -0 -0 -0 -0 -6 -43 -0 -1 -0 -0 -0 -0 -0 -0 -0 -0 -28 -75 -108 -84 -84 -110 -146 -128 -87 -42 -42 -38 -37 -21 -14 -13 -0 -0 -0 -0 -1 -0 -0 -2
-0 -0 -0 -0 -0 -0 -0 -9 -114 -67 -0 -0 -0 -0 -0 -0 -0 -0 -1 -9 -31 -61 -76 -94 -85 -87 -117 -177 -129 -67 -57 -29 -67 -63 -73 -21 -1 -0 -0 -0 -0 -0 -2 -5
-0 -0 -0 -0 -0 -0 -0 -11 -0 -2 -23 -0 -109 -2 -0 -0 -0 -2 -74 -34 -0 -166 -84 -58 -97 -47 -84 -142 -150 -101 -82 -121 -108 -60 -29 -5 -0 -0 -0 -0 -0 -2 -7 -12
-0 -0 -0 -0 -0 -0 -4 -4 -1 -5 -0 -0 -18 -37 -0 -2 -33 -14 -0 -0 -0 -60 -58 -45 -16 -18 -57 -77 -61 -85 -51 -81 -10 -33 -33 -14 -2 -11 -9 -0 -0 -0 -1 -0
-0 -1 -0 -1 -0 -1 -9 -11 -4 -0 -0 -0 -0 -0 -0 -0 -0 -0 -0 -0 -0 -0 -3 -187 -166 -213 -304 -158 -79 -65 -3 -15 -3 -19 -23 -16 -3 -4 -0 -0 -0 -3 -0 -22
-0 -0 -0 -0 -28 -0 -0 -0 -0 -0 -0 -0 -0 -0 -0 -0 -0 -0 -0 -0 -0 -0 -0 -0 -0 -0 -0 -0 -554 -189 -56 -13 -12 -0 -7 -7 -9 -6 -0 -15 -11 -21 -18 -28
-0 -0 -0 -0 -0 -0 -0 -0 -0 -0 -0 -0 -0 -0 -0 -0 -0 -0 -0 -0 -0 -0 -0 -0 -0 -0 -0 -0 -0 -438 -506 -271 -29 -49 -37 -20 -49 -29 -13 -15 -26 -27 -7 -61
-0 -0 -0 -0 -0 -0 -0 -0 -0 -0 -0 -0 -0 -0 -0 -0 -0 -0 -0 -0 -0 -0 -0 -0 -0 -0 -0 -0 -0 -0 -0 -518 -149 -40 -24 -35 -39 -36 -26 -24 -75 -450 -343 -543
Wind_Speed
19 16 20 22 21 21 19 16 21 18 19 16 21 19 22 18 19 19 19 20 21 23 23 22 21 20 20 19 19 17 15 12 11 10 10 9 8 8 5 5 7 8 3 5
15 22 20 19 18 21 22 15 15 18 14 16 18 21 15 17 18 19 19 19 21 22 25 23 23 22 21 20 19 17 15 13 11 10 8 8 7 9 7 7 8 6 7 5
22 11 20 21 20 20 20 20 16 15 12 11 19 21 22 16 20 18 19 18 20 22 25 25 25 24 22 22 20 18 16 15 13 12 8 7 7 5 8 5 7 8 8 8
21 21 11 22 23 21 20 17 19 18 17 14 20 16 22 18 18 20 20 19 21 23 24 26 26 24 24 23 21 19 18 16 15 13 12 12 10 9 8 7 8 9 9 8
15 18 24 20 20 21 18 16 20 19 17 17 20 19 17 26 25 24 22 22 21 24 25 27 28 27 25 23 22 20 19 17 16 15 12 12 12 9 9 9 10 6 8 8
17 16 17 23 18 16 18 18 19 16 16 18 23 22 21 18 30 25 24 21 23 24 25 25 26 25 23 23 22 22 20 19 17 17 16 14 14 11 10 9 10 9 9 9
19 20 19 12 17 23 17 21 14 15 17 18 23 25 19 19 21 28 26 26 23 23 23 24 25 25 25 26 25 22 22 21 20 19 18 15 14 13 9 10 9 10 10 9
14 17 22 19 22 20 26 22 15 26 16 19 24 25 23 25 19 21 24 27 25 23 23 24 25 25 26 26 24 22 23 23 22 20 19 17 16 12 12 10 10 10 9 9
12 23 1 5 18 23 21 27 25 27 23 22 20 27 22 26 27 23 12 21 24 27 23 26 25 25 25 24 24 24 23 23 23 23 18 18 16 16 14 13 12 10 9 7
8 14 12 9 8 16 23 17 24 19 26 25 20 24 19 23 20 26 19 14 19 27 26 24 24 25 24 25 24 23 22 23 23 22 20 18 18 17 14 13 13 13 8 9
15 9 17 11 12 20 18 21 16 18 24 19 17 14 13 23 22 20 26 19 18 18 24 23 23 23 24 23 24 24 23 22 22 22 20 20 18 19 17 14 14 12 11 9
10 11 15 18 16 22 26 20 28 16 20 21 19 11 11 16 20 20 21 25 23 20 19 22 22 23 23 24 24 24 25 25 23 22 21 21 20 19 18 18 15 15 13 12
11 10 14 16 14 16 14 17 18 20 23 22 20 18 4 5 6 7 18 19 19 22 21 18 21 21 21 23 21 23 24 26 25 22 23 21 20 20 20 19 17 16 15 14
3 14 17 14 8 12 17 24 12 20 18 22 20 22 20 8 8 1 7 8 19 17 19 22 21 22 23 21 21 20 23 24 24 24 24 21 22 21 20 18 17 16 15 15
11 17 19 19 16 15 16 9 13 20 20 17 17 20 20 11 10 10 3 6 5 2 5 9 12 14 17 20 19 20 21 20 22 22 22 22 21 20 19 19 18 17 16 15
13 15 17 18 21 14 17 16 17 18 20 20 22 23 24 18 18 16 3 8 3 7 6 5 11 16 16 17 18 19 20 20 20 21 22 19 19 20 20 19 19 18 17 16
12 10 13 17 18 19 21 22 21 21 21 21 23 23 22 19 18 18 5 4 9 10 9 8 10 9 11 16 16 19 20 18 19 18 19 19 19 20 20 19 19 19 18 17
8 11 10 10 13 17 13 16 18 15 17 24 25 24 26 24 22 26 17 3 10 12 11 10 10 11 12 14 17 17 21 20 19 20 18 20 19 20 19 19 19 18 17 17
17 12 6 8 14 15 19 10 6 6 12 19 19 21 25 27 23 26 16 18 9 13 13 12 12 12 13 15 14 15 18 21 20 20 21 21 20 20 19 20 20 17 16 16
21 18 10 12 15 20 17 13 3 6 15 18 22 23 19 23 19 14 14 9 9 12 12 14 13 13 15 15 18 16 19 18 22 22 22 19 18 19 20 19 18 16 15 16
5 8 17 15 14 12 16 11 4 10 4 21 25 14 10 12 14 12 7 9 9 11 13 11 12 15 16 15 17 17 19 22 20 18 17 17 18 18 17 16 15 16 16 15
6 7 11 15 20 20 8 4 10 7 7 17 22 16 13 10 8 7 7 8 9 11 10 9 8 11 18 14 14 15 16 15 14 16 17 17 17 16 15 16 15 15 14 14
5 6 6 6 6 8 7 11 16 10 8 17 24 14 14 6 2 7 6 8 8 10 11 10 10 11 16 19 5 12 9 14 14 15 15 15 16 16 14 16 15 14 14 14
3 6 4 7 4 14 20 21 16 19 12 14 19 10 11 7 8 4 6 7 8 9 10 11 10 12 15 16 16 15 5 10 13 15 15 15 16 15 14 14 14 14 14 14
3 4 5 5 8 15 13 12 15 21 14 21 7 6 5 7 5 6 6 6 8 9 10 11 11 12 13 13 14 16 15 7 13 14 14 15 15 15 15 14 14 14 14 11
5 4 3 3 8 7 9 16 20 6 7 3 2 3 4 4 4 5 5 6 7 7 9 10 12 13 13 13 14 16 16 13 6 10 12 14 14 15 15 14 9 10 9 11
Wind_Direction
198 215 215 214 224 239 263 226 233 234 214 205 228 213 147 185 173 165 170 174 181 185 187 178 190 185 182 181 176 188 185 167 171 180 193 190 178 206 188 197 135 147 188 177
199 226 228 230 225 233 253 257 253 241 213 212 214 236 169 179 182 172 177 178 182 184 180 185 190 187 189 184 182 183 187 172 187 192 199 197 201 188 197 202 161 209 186 169
231 220 218 236 229 237 229 241 240 253 225 249 242 233 213 183 183 183 182 184 184 186 183 187 189 192 191 187 186 182 187 178 188 198 193 199 205 209 201 179 175 191 191 184
229 245 243 217 232 229 236 219 257 254 250 221 219 238 215 168 201 187 185 186 186 187 191 185 189 195 193 191 188 183 184 184 187 210 185 189 203 204 183 206 193 169 199 195
232 229 241 226 234 230 242 241 221 246 251 249 238 226 245 187 207 184 194 186 196 185 190 189 192 192 195 192 189 189 183 187 190 194 211 183 218 201 187 201 154 217 168 204
264 266 237 241 229 237 236 243 251 235 234 238 235 247 225 214 198 212 181 192 194 188 189 195 192 189 196 193 192 191 183 189 195 188 210 196 195 229 206 205 165 189 179 188
231 237 251 245 252 221 215 224 222 223 218 235 223 231 243 219 228 206 193 187 191 197 190 195 191 190 192 195 195 190 183 188 190 192 194 206 202 212 240 178 216 199 201 195
280 222 213 212 231 234 212 225 227 218 216 226 230 224 224 247 254 230 216 182 187 195 188 196 197 193 191 196 192 193 184 187 189 195 194 199 199 201 218 205 207 222 215 199
257 240 207 276 212 239 230 216 244 258 238 237 212 218 234 214 234 250 269 192 184 185 195 193 196 198 196 194 194 194 189 187 191 194 192 191 200 211 198 215 212 223 222 219
289 277 263 196 234 270 263 259 220 236 249 254 235 221 205 209 216 224 226 236 193 192 183 197 195 198 199 196 197 195 196 191 192 194 193 194 193 200 211 202 201 217 225 231
281 252 257 205 201 232 222 247 257 249 231 247 247 232 233 194 198 221 218 205 234 218 183 195 193 194 198 200 197 198 195 193 192 201 197 197 196 197 204 203 202 215 212 222
244 271 248 242 220 226 245 247 232 240 227 235 256 239 291 200 184 204 232 218 218 225 214 195 197 191 193 199 198 197 199 199 195 200 198 197 194 195 197 205 204 198 211 211
278 228 250 250 259 252 245 238 257 257 248 231 228 240 72 59 133 248 200 229 219 228 210 207 194 187 192 197 201 200 198 201 199 199 200 196 196 195 197 197 203 202 201 207
289 266 271 263 336 333 233 237 246 266 240 239 249 228 223 165 162 117 287 263 222 222 229 209 201 191 186 196 194 198 198 202 200 196 203 199 198 198 199 196 196 202 200 201
245 254 261 267 278 283 294 278 233 256 264 271 254 243 261 249 224 219 326 300 273 195 299 260 228 222 188 184 189 192 202 199 199 196 200 199 197 200 197 195 194 196 201 200
229 262 275 267 274 246 255 246 251 255 256 267 275 278 279 325 323 320 224 322 329 313 276 268 250 244 216 200 187 189 198 201 200 194 198 196 193 196 197 196 194 195 199 201
287 263 262 256 251 246 240 239 240 245 248 252 250 254 271 280 281 293 301 2 307 293 288 292 294 267 239 213 191 197 195 201 197 204 195 195 189 194 197 196 193 195 198 198
222 261 254 267 255 254 258 244 241 263 276 238 246 257 260 262 262 271 283 221 285 292 296 289 273 267 259 234 210 195 193 198 203 201 197 194 192 195 194 193 195 195 195 201
235 214 262 246 254 249 255 251 20 4 276 293 282 266 234 258 271 265 278 280 251 277 281 274 270 270 273 271 225 190 202 192 203 200 202 195 196 192 194 197 195 194 197 200
233 214 203 257 244 249 250 85 65 292 262 269 260 254 231 234 249 263 299 346 298 283 286 286 284 275 254 239 255 203 191 199 200 203 200 194 195 194 199 197 193 191 196 204
225 254 223 230 252 258 278 92 323 253 302 337 323 321 226 248 273 314 344 320 317 301 288 300 288 269 250 238 226 244 189 207 200 204 195 192 198 197 199 196 195 193 197 205
260 219 222 236 246 245 4 279 251 341 325 325 305 321 316 288 21 339 351 332 340 327 319 329 324 333 332 213 220 222 210 188 186 195 192 192 194 196 192 196 195 197 196 203
286 355 298 279 260 5 311 298 306 302 292 287 294 305 320 332 12 13 8 2 11 353 346 12 9 9 12 3 260 211 173 171 176 186 189 191 188 192 196 189 192 193 195 206
292 334 283 315 348 344 319 300 294 268 253 272 272 299 310 299 353 33 4 23 36 13 1 10 18 26 24 16 12 8 177 175 172 188 188 188 186 188 202 184 192 201 199 202
268 279 283 278 310 292 265 273 274 258 247 259 250 288 308 324 9 332 341 29 28 33 29 25 23 29 19 16 16 16 6 307 192 189 191 188 187 187 195 195 195 201 210 204
348 344 335 308 309 322 315 320 310 165 193 148 170 84 25 9 337 335 6 26 41 36 32 32 31 31 28 18 12 8 4 1 295 197 194 191 189 181 193 193 166 52 120 121